METAR Formatted Surface Weather Observation
Issued by NWS

Home | Current Version | Previous Version | Text Only | Print | Product List | Glossary On
Versions: 1 2 3 4 5 6 7 8 9 10 11 12 13 14 15 16 17 18 19 20 21 22 23 24 25 26 27 28 29 30 31
000
SAUS44 KMOB 270057
MTRNDZ
METAR KNDZ 270056Z 18006KT 10SM FEW010 SCT021 SCT100 22/21 A3005 RMK
AO2 SLP161 T02220206 $



USA.gov is the U.S. government's official web portal to all federal, state and local government web resources and services.